Tracking 19145 objects as of 25-Apr-2018
HD Live streaming from Space Station
objects crossing your sky now

MOLNIYA 1-81

Track MOLNIYA 1-81 now!
MOLNIYA 1-81 is classified as:


NORAD ID: 21426
Int'l Code: 1991-043A
Perigee: 2,205.6 km
Apogee: 38,168.7 km
Inclination: 63.7 °
Period: 717.9 minutes
Semi major axis: 26558 km
RCS: 14.841 m2 (large)
Launch date: June 18, 1991
Source: Commonwealth of Independent States (former USSR) (CIS)
Launch site: TYURATAM MISSILE AND SPACE COMPLEX (TTMTR)
aabbcc
Your satellite tracking list
Your tracking list is empty




NASA's NSSDC Master Catalog

Two Line Element Set (TLE):
1 21426U 91043A   18115.17976230  .00000254  00000-0  00000+0 0  9993
2 21426  63.6748 162.2708 6770643 278.1388  15.9153  2.00588985196776
Source of the keplerian elements: AFSPC